Wind_Speed
55 54 54 53 52 50 49 48 46 45 44 41 38 36 34 32 31 30 29 27 25 24 22 21 20 20 20 20 19 19 20 20 20 20 21 21 21 21 21 21 21 21
55 56 56 56 56 55 53 52 50 49 47 45 42 39 37 35 34 33 32 29 28 26 24 23 22 21 20 20 20 19 20 20 20 20 20 20 21 21 21 21 21 21
54 55 56 57 57 57 56 55 54 52 50 48 46 43 41 39 37 36 35 33 30 28 27 25 23 22 21 20 20 19 20 20 20 20 21 20 21 22 21 21 21 21
53 54 55 56 57 57 57 57 57 56 54 52 50 47 45 42 40 39 38 36 33 31 30 27 25 23 21 20 20 20 20 20 20 21 21 21 21 22 21 21 22 22
52 53 54 55 56 57 58 59 59 58 57 56 54 51 49 46 43 42 42 40 37 35 33 30 27 24 22 21 20 20 19 20 21 21 21 22 22 22 22 22 22 22
48 50 52 54 55 55 57 58 58 57 57 57 56 54 52 49 47 46 45 43 40 38 35 32 29 26 24 23 21 20 20 20 20 21 21 22 22 23 23 22 22 22
43 45 48 50 52 53 55 56 56 57 57 57 57 57 55 53 51 49 48 46 43 40 38 35 32 29 26 24 23 21 20 20 20 21 21 22 22 23 23 23 22 22
37 40 43 46 48 51 53 54 55 56 56 56 58 58 57 55 54 52 51 49 46 43 40 37 34 32 29 26 24 22 21 21 20 21 21 22 22 24 24 23 23 23
33 35 38 42 44 46 49 51 53 54 55 56 57 58 58 57 56 54 53 51 48 45 43 40 37 34 31 29 26 24 23 22 21 20 21 22 23 23 23 24 24 24
30 31 34 37 40 41 44 46 49 50 53 54 55 57 58 58 57 56 55 53 50 48 45 43 40 37 34 31 28 26 24 22 21 21 21 22 23 23 23 24 24 24
27 29 31 34 36 37 39 42 44 46 49 51 52 55 56 57 57 57 56 55 53 51 48 45 42 39 36 33 29 27 25 23 22 22 22 22 23 23 24 24 25 25
24 26 28 31 32 34 35 37 39 41 44 47 49 51 54 56 57 58 58 57 56 53 50 47 43 40 37 34 30 27 25 24 23 22 22 23 23 24 24 25 25 25
22 23 25 27 29 30 32 34 36 38 41 44 46 48 51 54 55 57 58 58 57 54 51 48 44 41 38 34 30 28 27 25 24 23 23 24 24 25 25 25 26 26
21 22 23 24 26 27 29 31 33 36 38 41 43 45 48 50 52 54 56 57 57 55 52 49 45 42 38 34 31 29 27 25 24 23 24 24 25 25 25 26 26 26
21 22 23 24 25 26 28 29 32 34 36 38 40 42 44 47 49 51 54 56 57 56 53 49 46 42 39 34 31 29 26 25 25 24 25 25 25 26 26 26 26 27
23 23 23 24 25 26 27 29 30 32 34 36 37 39 41 44 46 49 51 54 56 56 53 49 46 42 37 32 29 27 25 25 25 25 25 26 26 27 27 27 27 28
25 25 25 25 25 26 26 27 29 30 32 33 35 37 39 41 43 46 49 51 53 54 53 49 45 40 34 30 28 26 26 25 26 26 26 27 27 28 28 28 29 29
26 26 26 26 25 25 25 25 26 28 29 31 32 34 36 38 40 43 45 48 50 52 51 47 42 36 31 28 27 27 27 27 27 28 28 28 29 29 29 30 30 31
25 25 25 25 24 24 24 23 24 25 26 28 29 31 33 35 37 40 42 45 48 50 49 44 38 33 29 27 26 27 28 29 28 28 29 30 30 30 30 31 32 32
23 23 23 23 22 22 21 21 21 22 22 24 25 27 30 32 34 37 39 42 45 47 46 41 35 31 28 27 27 27 29 30 29 29 29 31 31 31 32 32 32 32
21 21 20 20 19 19 18 17 17 17 18 20 22 24 27 29 31 33 36 39 42 43 41 36 32 29 27 27 27 27 28 28 28 29 29 29 30 30 31 32 32 31
18 18 18 17 16 16 15 14 14 14 15 17 19 21 23 25 28 30 32 35 37 38 36 33 31 29 28 28 27 27 26 25 26 28 29 29 29 30 30 32 33 33
17 17 17 17 16 15 14 13 13 13 13 14 16 18 20 22 24 26 28 30 32 33 32 31 30 29 28 27 27 26 25 26 29 31 32 33 33 34 34 35 36 34
18 18 17 17 16 15 15 14 13 12 11 11 12 13 15 16 18 20 23 25 28 29 29 29 29 28 27 26 26 26 25 27 30 33 34 35 35 36 36 36 36 35
19 19 18 17 17 16 15 15 14 13 13 12 12 12 13 14 16 19 21 24 26 27 28 28 28 26 25 25 25 25 24 26 29 32 34 34 34 35 36 36 37 37
20 19 19 18 18 17 17 17 16 16 16 15 15 15 16 18 19 21 23 25 26 26 26 26 26 25 25 25 25 24 24 25 29 32 33 34 34 34 35 36 37 37
Wind_Direction
246 247 248 249 251 251 252 253 253 253 254 255 256 257 258 259 258 257 256 257 258 260 261 261 261 262 262 263 262 262 263 264 264 266 267 268 269 269 270 270 269 268
248 248 249 250 251 252 253 254 254 254 255 256 256 257 257 256 256 254 254 255 256 257 258 259 259 259 259 260 260 259 260 261 262 264 265 266 267 268 269 269 270 269
250 250 251 252 253 254 255 255 255 255 255 255 255 254 255 255 254 253 252 253 253 254 255 255 255 255 256 257 258 258 258 260 261 263 264 264 265 267 268 269 270 270
252 252 253 254 255 256 257 257 256 255 254 254 254 253 253 254 252 251 250 250 250 251 251 252 252 252 254 256 257 258 258 259 260 261 262 263 263 265 266 267 269 270
255 255 255 256 256 256 257 257 257 256 255 254 254 253 253 253 251 250 249 249 248 248 249 249 249 250 252 254 255 256 257 258 259 261 261 261 261 263 263 265 267 269
257 257 257 257 257 257 257 257 258 258 257 255 254 254 253 253 251 250 249 249 247 247 247 246 247 248 249 251 252 254 256 258 259 260 260 259 260 262 263 264 266 268
260 260 259 259 259 258 258 258 258 258 258 257 255 254 253 253 251 250 249 248 247 246 245 245 246 246 246 247 249 252 254 256 258 259 260 259 260 262 264 266 267 269
265 264 263 262 261 260 260 259 259 258 258 257 256 255 254 253 252 250 249 248 245 244 244 243 243 243 243 244 246 250 252 254 257 259 260 260 260 262 265 267 268 269
268 267 265 265 264 263 262 261 261 260 259 258 256 255 254 253 252 250 249 247 244 243 243 242 241 241 241 242 244 247 250 254 257 258 260 261 261 263 264 266 269 271
268 267 266 266 265 265 264 264 263 262 261 260 258 256 255 253 252 249 248 246 244 242 241 240 240 239 240 241 242 245 248 252 255 257 260 262 262 263 264 265 268 271
271 270 269 268 267 268 267 267 266 265 264 263 261 258 257 254 252 249 246 245 243 242 241 240 239 239 240 241 240 242 246 249 253 256 259 262 262 263 263 265 268 270
280 276 274 273 273 273 272 270 270 268 266 265 263 261 258 256 252 249 247 245 243 242 241 240 239 239 241 240 239 241 243 246 250 254 257 260 262 263 264 266 267 269
293 287 282 280 279 278 276 274 272 271 268 267 266 263 260 257 254 251 248 246 244 242 241 239 239 239 240 239 238 239 241 245 249 252 255 258 260 263 264 265 266 268
300 294 289 285 282 279 277 275 273 272 270 269 267 265 262 260 257 253 250 246 243 242 241 240 239 238 238 237 236 238 242 246 249 252 255 257 260 262 263 264 266 269
300 294 289 285 281 278 277 276 274 273 272 270 269 267 264 262 259 255 251 247 244 242 240 239 238 238 237 236 237 240 244 247 250 253 255 257 259 261 261 263 266 270
303 298 293 287 282 278 277 276 276 275 274 272 271 269 266 263 260 256 252 248 244 242 240 238 238 237 237 237 240 243 245 247 251 253 255 257 258 259 261 263 266 270
304 301 296 291 286 280 276 275 275 276 276 275 273 270 268 265 261 257 253 248 244 241 240 239 238 237 236 237 240 243 246 247 250 253 254 256 257 258 260 264 267 270
302 299 297 294 289 284 280 276 275 276 276 275 274 272 269 266 263 259 254 249 244 240 238 238 238 237 237 239 242 245 248 250 251 253 254 254 256 258 260 263 267 269
300 298 296 293 290 286 282 278 277 277 277 277 276 274 271 268 265 261 256 250 244 239 236 235 236 236 237 241 244 247 251 252 252 252 254 255 257 258 260 263 265 267
301 299 296 294 291 288 285 281 280 279 279 279 277 275 272 269 266 262 256 251 245 239 235 233 235 237 240 244 246 248 252 254 256 255 254 256 258 259 261 264 266 268
304 302 299 297 295 292 290 287 285 283 282 280 278 275 273 270 266 262 257 252 245 237 233 233 237 241 244 247 248 248 248 249 255 258 257 257 258 260 263 265 267 270
311 310 308 307 304 301 298 294 290 288 285 283 280 276 273 269 264 260 255 250 242 234 232 236 241 245 248 248 248 247 242 238 242 249 253 254 255 258 260 263 266 270
318 317 316 314 312 310 305 300 295 290 286 283 280 276 273 269 264 258 252 244 237 232 235 242 247 249 250 249 247 243 237 233 235 239 244 248 252 257 259 262 266 270
320 319 318 316 314 311 308 303 298 293 288 283 279 275 272 268 261 253 245 239 236 238 244 249 252 251 250 247 246 243 237 236 239 242 246 250 254 259 262 265 269 271
318 317 316 314 311 308 305 301 297 292 286 281 275 270 265 259 252 247 244 243 245 248 250 251 251 250 247 244 244 242 237 237 242 246 250 254 259 262 266 269 271 273
313 312 311 309 306 303 299 295 291 288 284 279 274 268 263 258 254 252 251 251 252 252 251 251 251 249 247 245 243 241 237 236 242 248 253 258 262 265 267 270 272 275
Height
1482 1483 1484 1485 1485 1487 1487 1488 1489 1490 1490 1491 1492 1492 1493 1494 1494 1494 1494 1494 1495 1495 1494 1494 1494 1494 1494 1494 1494 1494 1493 1493 1493 1493 1493 1493 1493 1493 1493 1493 1493 1493
1478 1479 1479 1480 1480 1481 1482 1483 1484 1485 1485 1486 1488 1488 1489 1490 1490 1490 1490 1491 1491 1491 1491 1491 1491 1491 1491 1490 1490 1490 1490 1490 1490 1490 1489 1489 1489 1489 1489 1489 1489 1490
1473 1474 1474 1475 1475 1476 1477 1478 1479 1480 1481 1482 1483 1484 1484 1485 1485 1486 1486 1486 1487 1487 1487 1487 1487 1487 1487 1487 1486 1486 1486 1486 1486 1486 1486 1486 1486 1486 1486 1486 1486 1486
1468 1469 1470 1470 1471 1472 1473 1473 1473 1474 1476 1476 1477 1479 1479 1480 1481 1481 1481 1482 1482 1483 1483 1483 1483 1483 1483 1482 1482 1483 1482 1482 1482 1482 1482 1482 1482 1482 1482 1482 1482 1483
1463 1464 1465 1465 1466 1467 1467 1467 1467 1468 1470 1470 1472 1473 1474 1475 1476 1476 1476 1477 1477 1478 1478 1479 1479 1478 1478 1478 1478 1479 1479 1479 1478 1478 1479 1479 1479 1479 1479 1479 1479 1479
1458 1459 1459 1460 1461 1462 1462 1461 1462 1463 1464 1465 1466 1467 1468 1469 1470 1470 1470 1471 1472 1473 1473 1474 1474 1474 1474 1474 1474 1474 1474 1475 1475 1475 1475 1475 1475 1475 1475 1476 1476 1476
1453 1454 1454 1455 1455 1456 1455 1455 1456 1457 1458 1460 1461 1461 1463 1464 1465 1465 1465 1466 1467 1467 1468 1469 1469 1469 1469 1469 1469 1470 1470 1470 1471 1471 1471 1471 1472 1471 1471 1472 1472 1472
1448 1449 1449 1449 1449 1449 1449 1450 1450 1451 1452 1454 1455 1456 1457 1458 1459 1459 1460 1460 1461 1462 1463 1464 1464 1465 1465 1464 1465 1465 1466 1466 1466 1466 1467 1467 1467 1467 1468 1468 1468 1468
1443 1443 1443 1443 1443 1443 1443 1444 1444 1446 1447 1448 1449 1450 1451 1453 1454 1454 1455 1455 1456 1457 1458 1459 1459 1460 1460 1459 1460 1460 1461 1461 1462 1462 1462 1463 1463 1463 1464 1464 1464 1463
1438 1438 1438 1437 1437 1437 1438 1438 1439 1440 1441 1442 1443 1444 1445 1447 1448 1449 1450 1450 1451 1451 1452 1453 1454 1454 1455 1455 1455 1456 1456 1457 1457 1457 1458 1458 1459 1459 1460 1460 1460 1459
1434 1434 1433 1432 1432 1432 1433 1433 1434 1435 1435 1435 1437 1438 1439 1440 1442 1443 1444 1444 1445 1446 1446 1447 1449 1450 1450 1450 1451 1451 1452 1452 1452 1453 1453 1453 1454 1454 1455 1455 1455 1456
1431 1430 1429 1428 1428 1428 1428 1429 1429 1430 1430 1429 1431 1432 1433 1434 1435 1436 1437 1438 1439 1440 1441 1442 1444 1445 1445 1445 1446 1447 1447 1447 1448 1448 1449 1449 1449 1450 1450 1451 1451 1452
1428 1427 1426 1425 1425 1424 1424 1424 1424 1424 1424 1424 1425 1426 1427 1428 1429 1430 1431 1433 1434 1436 1437 1438 1439 1440 1441 1441 1442 1443 1443 1443 1443 1444 1444 1444 1445 1445 1445 1446 1446 1447
1425 1424 1423 1422 1421 1420 1420 1420 1419 1419 1419 1419 1420 1420 1421 1422 1423 1425 1426 1428 1429 1430 1432 1433 1434 1435 1436 1437 1437 1438 1439 1440 1439 1440 1440 1440 1441 1441 1441 1441 1442 1442
1422 1421 1420 1419 1417 1417 1416 1415 1415 1415 1414 1414 1414 1415 1416 1417 1418 1420 1421 1422 1424 1425 1427 1428 1429 1430 1431 1432 1433 1434 1435 1436 1436 1436 1436 1437 1437 1437 1437 1437 1437 1438
1419 1417 1416 1415 1414 1413 1412 1411 1411 1410 1410 1410 1410 1410 1411 1412 1413 1414 1416 1417 1419 1421 1422 1424 1424 1426 1428 1429 1430 1431 1431 1432 1432 1432 1433 1433 1433 1433 1433 1433 1433 1433
1415 1413 1412 1411 1410 1409 1408 1407 1406 1406 1405 1405 1405 1405 1406 1407 1408 1409 1410 1412 1414 1416 1418 1420 1421 1423 1425 1426 1428 1428 1428 1428 1428 1428 1429 1429 1429 1429 1429 1429 1429 1429
1411 1410 1408 1407 1406 1405 1404 1403 1402 1402 1401 1401 1401 1401 1402 1403 1403 1404 1406 1408 1410 1412 1414 1416 1418 1420 1422 1423 1424 1425 1425 1424 1424 1424 1424 1424 1424 1425 1425 1426 1425 1425
1408 1406 1405 1403 1402 1401 1400 1399 1398 1398 1397 1397 1397 1397 1398 1398 1399 1400 1401 1403 1405 1407 1409 1412 1414 1416 1418 1419 1420 1421 1421 1421 1420 1420 1420 1420 1420 1421 1421 1421 1422 1421
1405 1403 1402 1400 1399 1398 1396 1396 1395 1394 1394 1394 1394 1394 1394 1394 1395 1396 1397 1399 1401 1403 1406 1409 1411 1412 1414 1415 1416 1416 1417 1417 1417 1417 1416 1416 1415 1416 1417 1417 1417 1417
1402 1401 1399 1398 1396 1395 1394 1393 1392 1392 1391 1391 1391 1391 1391 1391 1392 1393 1394 1395 1397 1400 1403 1406 1407 1409 1410 1411 1412 1412 1413 1413 1413 1412 1412 1411 1411 1411 1412 1412 1412 1412
1400 1399 1397 1396 1394 1393 1392 1391 1390 1389 1389 1389 1388 1388 1388 1389 1389 1390 1391 1393 1395 1398 1400 1402 1404 1405 1406 1407 1408 1409 1410 1411 1410 1409 1408 1407 1406 1407 1407 1408 1408 1408
1398 1397 1396 1394 1393 1392 1390 1389 1389 1388 1387 1387 1386 1386 1386 1387 1387 1388 1389 1391 1393 1396 1397 1399 1400 1401 1402 1403 1404 1405 1406 1407 1407 1406 1404 1404 1403 1404 1404 1404 1404 1404
1397 1395 1394 1393 1392 1391 1389 1388 1387 1386 1386 1386 1385 1385 1385 1385 1386 1387 1388 1390 1392 1393 1395 1395 1396 1398 1398 1399 1400 1401 1402 1403 1402 1401 1400 1400 1401 1400 1400 1400 1399 1400
1395 1394 1393 1392 1390 1389 1388 1387 1386 1386 1385 1385 1384 1384 1384 1385 1385 1386 1387 1388 1389 1390 1391 1391 1392 1393 1394 1395 1396 1397 1399 1399 1398 1397 1396 1396 1397 1397 1396 1395 1395 1395
1393 1392 1391 1390 1389 1388 1387 1386 1385 1385 1384 1384 1384 1383 1383 1383 1384 1384 1385 1385 1386 1387 1387 1387 1388 1389 1390 1391 1392 1394 1395 1395 1394 1393 1392 1393 1393 1393 1392 1391 1390 1390